SCP
0 0 0 0 0 0 0 0 0 0 0 0 0 0 0 0 0 0 0 0 0 0 0 0 0 0 0 0 0 0 0 0 0 0 0 0 0 0 0 0 0 0 0
0 0 0 0 0 0 0 0 0 0 0 0 0 0 0 0 0 0 0 0 0 0 0 0 0 0 0 0 0 0 0 0 0 0 0 0 0 0 0 0 0 0 0
0 0 0 0 0 0 0 0 0 0 0 0 0 0 0 0 0 0 0 0 0 0 0 0 0 0 0 0 0 0 0 0 0 0 0 0 0 0 0 0 0 0 0
0 0 0 0 0 0 0 0 0 0 0 0 0 0 0 0 0 0 0 0 0 0 0 0 0 0 0 0 0 0 0 0 0 0 0 0 0 0 0 0 0 0 0
0 0 0 0 0 0 0 0 0 0 0 0 0 0 0 0 0 0 0 0 0 0 0 0 0 0 0 0 0 0 0 0 0 0 0 0 0 0 0 0 0 0 0
0 0 0 0 0 0 0 0 0 0 0 0 0 0 0 0 0 0 0 0 0 0 0 0 0 0 0 0 0 0 0 0 0 0 0 0 0 0 0 0 0 0 0
0 0 0 0 0 0 0 0 0 0 0 0 0 0 0 0 0 0 0 0 0 0 0 0 0 0 0 0 0 0 0 0 0 0 0 0 0 0 0 0 0 0 0
0 0 0 0 0 0 0 0 0 0 0 0 0 0 0 0 0 0 0 0 0 0 0 0 0 0 0 0 0 0 0 0 0 0 0 0 0 0 0 0 0 0 0
0 0 0 0 0 0 0 0 0 0 0 0 0 0 0 0 0 0 0 0 0 0 0 0 0 0 0 0 0 0 0 0 0 0 0 0 0 0 0 0 0 0 0
0 0 0 0 0 0 0 0 0 0 0 0 0 0 0 0 0 0 0 0 0 0 0 0 0 0 0 0 0 0 0 0 0 0 0 0 0 0 0 0 0 0 0
0 0 0 0 0 0 0 0 0 0 0 0 0 0 0 0 0 0 0 0 0 0 0 0 0 0 0 0 0 0 0 0 0 0 0 0 0 0 0 0 0 0 0
0 0 0 0 0 0 0 0 0 0 0 0 0 0 0 0 0 0 0 0 0 0 0 0 0 0 0 0 0 0 0 0 0 0 0 0 0 0 0 0 0 0 0
0 0 0 0 0 0 0 0 0 0 0 0 0 0 0 0 0 0 0 0 0 0 0 0 0 0 0 0 0 0 0 0 0 0 0 0 0 0 0 0 0 0 0
0 0 0 0 0 0 0 0 0 0 0 0 0 0 0 0 0 0 0 0 0 0 0 0 0 0 0 0 0 0 0 0 0 0 0 0 0 0 0 0 0 0 0
0 0 0 0 0 0 0 0 0 0 0 0 0 0 0 0 0 0 0 0 0 0 0 0 0 0 0 0 0 0 0 0 0 0 0 0 0 0 0 0 0 0 0
0 0 0 0 0 0 0 0 0 0 0 0 0 0 0 0 0 0 0 0 0 0 0 0 0 0 0 0 0 0 0 0 0 0 0 0 0 0 0 0 0 0 0
0 0 0 0 0 0 0 0 0 0 0 0 0 0 0 0 0 0 0 0 0 0 0 0 0 0 0 0 0 0 0 0 0 0 0 0 0 0 0 0 0 0 0
0 0 0 0 0 0 0 0 0 0 0 0 0 0 0 0 0 0 0 0 0 0 0 0 0 0 0 0 0 0 0 0 0 0 0 0 0 0 0 0 0 0 0
0 0 0 0 0 0 0 0 0 0 0 0 0 0 0 0 0 0 0 0 0 0 0 0 0 0 0 0 0 0 0 0 0 0 0 0 0 0 0 0 0 0 0
0 0 0 0 0 0 0 0 0 0 0 0 0 0 0 0 0 0 0 0 0 0 0 0 0 0 0 0 0 0 0 0 0 0 0 0 0 0 0 0 0 0 0
0 0 0 0 0 0 0 0 0 0 0 0 0 0 0 0 0 0 0 0 0 0 0 0 0 0 0 0 0 0 0 0 0 0 0 0 0 0 0 0 0 0 0
0 0 0 0 0 0 0 0 0 0 0 0 0 0 0 0 0 0 0 0 0 0 0 0 0 0 0 0 0 0 0 0 0 0 0 0 0 0 0 0 0 0 0
0 0 0 0 0 0 0 0 0 0 0 0 0 0 0 0 0 0 0 0 0 0 0 0 0 0 0 0 0 0 0 0 0 0 0 0 0 0 0 0 0 0 0
0 0 0 0 0 0 0 0 0 0 0 0 0 0 0 0 0 0 0 0 0 0 0 0 0 0 0 0 0 0 0 0 0 0 0 0 0 0 0 0 0 0 0
0 0 0 0 0 0 0 0 0 0 0 0 0 0 0 0 0 0 0 0 0 0 0 0 0 0 0 0 0 0 0 0 0 0 0 0 0 0 0 0 0 0 0
0 0 0 0 0 0 0 0 0 0 0 0 0 0 0 0 0 0 0 0 0 0 0 0 0 0 0 0 0 0 0 0 0 0 0 0 0 0 0 0 0 0 0
Wind_Speed_500mb
22 23 26 23 28 34 37 41 37 28 28 25 26 25 25 27 28 22 21 15 11 12 12 14 18 25 26 26 26 25 25 24 27 35 38 40 43 43 43 45 46 47 45
12 12 14 21 19 22 27 24 27 22 27 20 20 24 14 10 10 9 10 7 9 11 13 13 13 13 15 17 18 19 20 21 22 26 32 36 38 40 42 41 40 41 39
7 9 11 14 18 21 21 11 13 11 10 8 7 7 8 6 5 3 5 4 5 4 5 6 9 11 14 17 18 21 22 24 25 26 30 32 35 36 33 32 32 33 35
11 12 14 16 17 16 15 11 10 7 6 5 4 5 6 5 5 5 3 3 1 2 5 7 11 14 16 18 21 23 24 25 26 25 26 27 29 31 33 33 28 27 30
12 12 15 16 16 15 14 13 13 13 12 12 10 9 8 7 7 5 3 1 4 6 9 11 14 17 19 20 21 22 22 22 22 21 21 23 26 29 33 37 38 37 40
16 17 19 20 20 20 19 18 17 16 16 14 11 9 6 4 1 2 4 5 8 10 12 13 15 17 17 19 20 21 21 20 20 21 21 23 27 30 33 37 42 47 47
18 19 20 20 19 20 19 17 15 13 11 8 5 4 2 0 1 3 6 7 8 9 11 12 14 16 17 17 17 16 17 17 17 18 21 24 27 31 35 38 42 43 47
17 17 18 18 16 14 13 11 10 9 7 4 3 2 2 1 2 5 7 9 9 9 11 12 13 13 13 12 14 15 15 17 19 21 24 27 31 35 39 43 46 50 48
14 13 13 13 13 12 10 7 5 4 3 2 1 3 4 5 6 7 9 10 10 11 11 11 12 13 12 11 14 17 18 19 23 26 30 33 35 38 44 45 47 53 58
12 11 10 9 8 7 6 4 2 1 3 4 5 6 7 8 7 8 9 11 11 11 11 11 12 13 18 21 19 20 21 23 26 28 30 34 36 39 43 47 49 50 52
15 13 12 10 9 8 7 6 6 5 5 7 10 11 12 12 12 12 11 13 12 12 12 13 15 19 23 26 29 28 28 30 29 31 33 35 38 41 44 47 48 49 50
20 17 15 13 10 9 7 7 8 10 11 13 14 14 14 15 15 15 14 13 14 14 16 17 19 24 27 29 29 29 30 30 30 32 35 36 38 41 43 45 47 46 48
21 19 17 14 12 12 13 13 14 15 15 15 16 18 18 17 17 17 15 15 13 14 18 19 23 26 27 27 29 30 31 32 34 36 37 39 41 43 46 47 47 50 47
23 21 18 17 17 19 19 18 19 19 18 19 20 21 22 19 18 17 15 14 16 19 20 21 24 26 27 28 28 31 33 34 36 38 38 39 40 41 44 50 49 50 53
25 24 24 24 25 24 22 22 22 21 21 22 23 23 23 20 19 17 16 17 19 22 23 24 25 24 24 25 28 31 33 35 36 38 41 42 43 44 44 48 51 52 53
31 29 26 26 26 26 26 27 28 28 28 27 28 28 26 22 20 19 19 19 21 26 24 22 19 19 18 21 24 27 29 32 34 37 40 44 45 47 47 46 50 53 55
34 32 32 31 31 32 32 32 31 30 30 31 33 31 29 25 21 22 23 22 23 24 18 17 16 17 19 21 24 28 29 33 35 38 42 46 49 50 53 51 52 53 54
39 39 37 35 35 36 36 35 35 35 35 35 34 32 30 27 26 27 26 24 21 20 17 17 18 20 21 24 26 30 32 35 38 40 44 48 52 54 53 53 54 57 57
42 40 39 40 41 41 41 40 39 40 38 37 36 34 32 30 29 30 28 26 24 22 23 20 23 24 26 29 31 34 38 40 42 44 45 49 52 58 57 56 58 57 59
45 44 43 43 43 43 42 42 41 40 39 39 37 32 34 35 33 32 33 32 30 28 30 32 31 34 35 37 38 41 44 46 48 50 51 54 55 60 61 60 59 62 59
45 45 45 45 42 40 39 40 39 41 41 41 38 39 41 40 37 39 38 39 38 37 37 40 42 42 42 44 47 49 52 54 54 55 57 59 60 62 63 63 62 62 62
45 45 44 41 38 39 39 41 42 43 43 43 40 41 46 48 44 43 44 44 44 47 49 51 52 52 51 52 54 58 61 63 62 61 64 65 66 66 67 66 62 61 60
43 43 42 40 40 41 44 44 44 44 44 45 44 46 50 53 52 51 51 50 51 53 54 57 60 61 60 61 63 66 71 72 70 70 72 71 70 69 68 69 65 62 59
41 41 41 40 43 44 45 45 46 47 47 48 48 51 53 55 58 59 59 59 60 60 61 63 65 67 67 69 70 73 77 78 79 77 76 76 73 71 70 69 65 61 60
41 41 41 41 42 44 45 46 48 50 51 51 52 54 55 58 60 62 63 64 66 67 67 69 71 73 74 75 77 79 80 80 82 80 79 79 77 73 71 68 64 60 58
40 40 41 42 44 46 48 48 49 50 52 53 55 57 59 61 63 64 65 67 68 69 71 73 74 75 77 78 78 79 80 80 81 80 80 76 74 71 67 65 61 60 56
Wind_Direction_500mb
246 242 232 233 227 229 239 252 247 244 259 258 251 241 247 229 240 239 243 242 249 254 255 240 258 278 274 279 284 284 279 275 265 261 268 275 282 290 298 304 307 310 312
227 214 210 218 225 226 220 205 222 221 244 241 248 248 234 235 237 246 247 251 281 260 281 272 281 285 289 291 291 290 287 286 279 275 277 283 289 295 303 308 310 312 315
204 203 209 210 220 230 242 218 222 199 185 184 227 236 234 241 199 214 230 226 237 243 242 288 289 291 295 298 300 301 301 298 294 290 288 292 299 304 306 311 316 317 318
169 180 190 196 203 211 204 194 177 185 189 202 171 145 128 148 135 147 105 87 88 304 306 298 296 299 303 308 308 309 310 310 308 305 303 305 309 314 317 315 309 318 318
138 159 169 166 165 168 172 168 157 148 141 131 133 136 136 125 125 110 98 342 309 305 303 307 311 312 315 317 320 320 318 316 313 311 310 310 311 316 322 329 331 330 331
135 142 137 137 137 138 137 136 133 134 131 128 130 129 129 145 158 291 288 308 311 314 315 315 315 320 321 322 323 322 319 320 320 322 325 325 326 328 328 331 332 337 340
146 143 137 134 135 132 130 130 130 127 126 132 127 118 123 88 325 300 299 303 303 305 309 312 315 317 322 322 322 322 322 320 318 319 322 326 326 327 328 329 330 332 331
149 146 144 141 141 137 138 140 140 140 139 132 157 113 55 356 297 300 306 316 311 306 306 307 309 315 321 320 324 324 321 318 318 321 323 323 323 321 323 326 326 327 328
167 171 169 161 156 153 152 152 153 141 154 178 337 347 339 328 312 309 309 314 311 313 313 315 316 319 321 317 316 317 312 312 312 314 317 316 318 318 319 320 320 322 325
186 185 174 172 168 156 144 139 145 232 280 282 298 306 311 320 317 313 307 307 306 307 307 308 308 311 319 320 321 318 311 307 308 309 310 310 311 312 312 314 316 321 324
186 196 198 197 191 189 194 199 216 237 273 298 302 301 300 304 305 302 301 302 299 298 298 301 306 312 318 318 323 320 316 319 314 310 310 310 311 309 307 309 312 315 315
220 212 205 204 202 210 227 253 284 292 290 286 289 289 290 290 288 285 284 285 294 294 296 300 305 310 310 312 314 314 316 316 314 315 316 315 311 307 306 308 306 307 311
218 212 214 220 224 236 248 258 261 262 269 273 280 280 279 276 277 277 275 277 285 283 290 298 301 300 304 309 313 315 318 320 320 321 322 319 316 316 315 312 311 308 309
216 220 224 234 244 249 256 264 264 267 271 273 273 270 268 269 265 260 265 277 287 290 294 300 302 302 305 312 316 319 319 321 322 323 320 318 317 317 316 313 314 311 310
223 230 235 240 245 249 255 257 259 266 270 274 271 265 262 256 250 249 260 275 283 288 297 297 295 298 306 312 315 315 317 319 319 319 319 320 320 320 319 316 316 315 314
232 238 246 253 259 261 261 266 268 269 268 263 256 254 252 247 249 256 265 274 283 289 300 299 300 301 304 305 305 305 306 309 315 318 319 319 320 320 321 322 319 317 315
242 244 245 248 255 262 267 271 273 269 266 260 257 254 247 245 249 258 266 272 278 287 289 287 291 295 294 295 297 304 312 315 318 319 318 318 319 321 322 324 321 318 316
240 243 247 252 258 263 267 267 264 261 256 253 252 245 240 241 248 256 263 269 273 274 277 278 280 284 290 298 304 309 311 312 315 316 317 316 317 318 320 320 319 318 317
247 249 251 254 256 258 259 259 257 254 252 249 242 239 241 244 249 254 259 264 264 269 273 276 281 288 293 296 301 304 307 309 310 311 312 312 314 314 317 317 316 317 317
249 250 252 254 254 254 254 253 251 250 249 246 243 244 244 247 250 253 258 261 264 267 274 282 284 289 292 294 296 298 301 303 305 307 309 309 310 310 312 313 314 314 316
247 248 250 248 249 250 250 250 248 247 246 242 241 242 246 249 248 254 260 265 268 271 274 278 282 284 288 291 293 296 297 300 302 304 305 305 306 306 307 308 310 311 314
246 247 248 250 249 249 250 248 246 246 243 241 242 243 251 255 257 259 261 264 268 271 274 278 281 285 288 290 292 292 293 295 298 300 298 299 301 302 303 304 306 308 310
247 248 250 250 251 250 249 248 247 247 245 247 247 246 251 258 262 264 265 266 267 269 272 276 280 283 287 288 288 290 291 294 295 294 294 294 295 297 298 299 302 304 307
247 248 249 249 247 246 245 245 248 247 248 251 253 254 255 258 263 268 271 274 275 275 276 278 281 283 285 286 286 287 289 291 291 291 291 290 290 292 292 294 297 301 303
243 243 243 242 242 245 247 248 248 249 251 255 258 261 263 265 267 269 272 274 276 278 280 281 282 284 285 286 286 287 288 287 288 289 288 288 288 288 288 290 293 296 297
236 236 239 242 245 248 251 253 255 256 258 261 265 267 269 271 272 274 276 277 279 281 282 282 283 284 286 287 287 287 287 287 287 287 287 285 285 285 285 286 288 290 292
Wind_Speed_850mb
22 23 26 23 28 34 37 41 37 28 28 25 26 25 25 27 28 22 21 15 11 12 12 14 18 25 26 26 26 25 25 24 27 35 38 40 43 43 43 45 46 47 45
12 12 14 21 19 22 27 24 27 22 27 20 20 24 14 10 10 9 10 7 9 11 13 13 13 13 15 17 18 19 20 21 22 26 32 36 38 40 42 41 40 41 39
7 9 11 14 18 21 21 11 13 11 10 8 7 7 8 6 5 3 5 4 5 4 5 6 9 11 14 17 18 21 22 24 25 26 30 32 35 36 33 32 32 33 35
11 12 14 16 17 16 15 11 10 7 6 5 4 5 6 5 5 5 3 3 1 2 5 7 11 14 16 18 21 23 24 25 26 25 26 27 29 31 33 33 28 27 30
12 12 15 16 16 15 14 13 13 13 12 12 10 9 8 7 7 5 3 1 4 6 9 11 14 17 19 20 21 22 22 22 22 21 21 23 26 29 33 37 38 37 40
16 17 19 20 20 20 19 18 17 16 16 14 11 9 6 4 1 2 4 5 8 10 12 13 15 17 17 19 20 21 21 20 20 21 21 23 27 30 33 37 42 47 47
18 19 20 20 19 20 19 17 15 13 11 8 5 4 2 0 1 3 6 7 8 9 11 12 14 16 17 17 17 16 17 17 17 18 21 24 27 31 35 38 42 43 47
17 17 18 18 16 14 13 11 10 9 7 4 3 2 2 1 2 5 7 9 9 9 11 12 13 13 13 12 14 15 15 17 19 21 24 27 31 35 39 43 46 50 48
14 13 13 13 13 12 10 7 5 4 3 2 1 3 4 5 6 7 9 10 10 11 11 11 12 13 12 11 14 17 18 19 23 26 30 33 35 38 44 45 47 53 58
12 11 10 9 8 7 6 4 2 1 3 4 5 6 7 8 7 8 9 11 11 11 11 11 12 13 18 21 19 20 21 23 26 28 30 34 36 39 43 47 49 50 52
15 13 12 10 9 8 7 6 6 5 5 7 10 11 12 12 12 12 11 13 12 12 12 13 15 19 23 26 29 28 28 30 29 31 33 35 38 41 44 47 48 49 50
20 17 15 13 10 9 7 7 8 10 11 13 14 14 14 15 15 15 14 13 14 14 16 17 19 24 27 29 29 29 30 30 30 32 35 36 38 41 43 45 47 46 48
21 19 17 14 12 12 13 13 14 15 15 15 16 18 18 17 17 17 15 15 13 14 18 19 23 26 27 27 29 30 31 32 34 36 37 39 41 43 46 47 47 50 47
23 21 18 17 17 19 19 18 19 19 18 19 20 21 22 19 18 17 15 14 16 19 20 21 24 26 27 28 28 31 33 34 36 38 38 39 40 41 44 50 49 50 53
25 24 24 24 25 24 22 22 22 21 21 22 23 23 23 20 19 17 16 17 19 22 23 24 25 24 24 25 28 31 33 35 36 38 41 42 43 44 44 48 51 52 53
31 29 26 26 26 26 26 27 28 28 28 27 28 28 26 22 20 19 19 19 21 26 24 22 19 19 18 21 24 27 29 32 34 37 40 44 45 47 47 46 50 53 55
34 32 32 31 31 32 32 32 31 30 30 31 33 31 29 25 21 22 23 22 23 24 18 17 16 17 19 21 24 28 29 33 35 38 42 46 49 50 53 51 52 53 54
39 39 37 35 35 36 36 35 35 35 35 35 34 32 30 27 26 27 26 24 21 20 17 17 18 20 21 24 26 30 32 35 38 40 44 48 52 54 53 53 54 57 57
42 40 39 40 41 41 41 40 39 40 38 37 36 34 32 30 29 30 28 26 24 22 23 20 23 24 26 29 31 34 38 40 42 44 45 49 52 58 57 56 58 57 59
45 44 43 43 43 43 42 42 41 40 39 39 37 32 34 35 33 32 33 32 30 28 30 32 31 34 35 37 38 41 44 46 48 50 51 54 55 60 61 60 59 62 59
45 45 45 45 42 40 39 40 39 41 41 41 38 39 41 40 37 39 38 39 38 37 37 40 42 42 42 44 47 49 52 54 54 55 57 59 60 62 63 63 62 62 62
45 45 44 41 38 39 39 41 42 43 43 43 40 41 46 48 44 43 44 44 44 47 49 51 52 52 51 52 54 58 61 63 62 61 64 65 66 66 67 66 62 61 60
43 43 42 40 40 41 44 44 44 44 44 45 44 46 50 53 52 51 51 50 51 53 54 57 60 61 60 61 63 66 71 72 70 70 72 71 70 69 68 69 65 62 59
41 41 41 40 43 44 45 45 46 47 47 48 48 51 53 55 58 59 59 59 60 60 61 63 65 67 67 69 70 73 77 78 79 77 76 76 73 71 70 69 65 61 60
41 41 41 41 42 44 45 46 48 50 51 51 52 54 55 58 60 62 63 64 66 67 67 69 71 73 74 75 77 79 80 80 82 80 79 79 77 73 71 68 64 60 58
40 40 41 42 44 46 48 48 49 50 52 53 55 57 59 61 63 64 65 67 68 69 71 73 74 75 77 78 78 79 80 80 81 80 80 76 74 71 67 65 61 60 56
Wind_Direction_850mb
246 242 232 233 227 229 239 252 247 244 259 258 251 241 247 229 240 239 243 242 249 254 255 240 258 278 274 279 284 284 279 275 265 261 268 275 282 290 298 304 307 310 312
227 214 210 218 225 226 220 205 222 221 244 241 248 248 234 235 237 246 247 251 281 260 281 272 281 285 289 291 291 290 287 286 279 275 277 283 289 295 303 308 310 312 315
204 203 209 210 220 230 242 218 222 199 185 184 227 236 234 241 199 214 230 226 237 243 242 288 289 291 295 298 300 301 301 298 294 290 288 292 299 304 306 311 316 317 318
169 180 190 196 203 211 204 194 177 185 189 202 171 145 128 148 135 147 105 87 88 304 306 298 296 299 303 308 308 309 310 310 308 305 303 305 309 314 317 315 309 318 318
138 159 169 166 165 168 172 168 157 148 141 131 133 136 136 125 125 110 98 342 309 305 303 307 311 312 315 317 320 320 318 316 313 311 310 310 311 316 322 329 331 330 331
135 142 137 137 137 138 137 136 133 134 131 128 130 129 129 145 158 291 288 308 311 314 315 315 315 320 321 322 323 322 319 320 320 322 325 325 326 328 328 331 332 337 340
146 143 137 134 135 132 130 130 130 127 126 132 127 118 123 88 325 300 299 303 303 305 309 312 315 317 322 322 322 322 322 320 318 319 322 326 326 327 328 329 330 332 331
149 146 144 141 141 137 138 140 140 140 139 132 157 113 55 356 297 300 306 316 311 306 306 307 309 315 321 320 324 324 321 318 318 321 323 323 323 321 323 326 326 327 328
167 171 169 161 156 153 152 152 153 141 154 178 337 347 339 328 312 309 309 314 311 313 313 315 316 319 321 317 316 317 312 312 312 314 317 316 318 318 319 320 320 322 325
186 185 174 172 168 156 144 139 145 232 280 282 298 306 311 320 317 313 307 307 306 307 307 308 308 311 319 320 321 318 311 307 308 309 310 310 311 312 312 314 316 321 324
186 196 198 197 191 189 194 199 216 237 273 298 302 301 300 304 305 302 301 302 299 298 298 301 306 312 318 318 323 320 316 319 314 310 310 310 311 309 307 309 312 315 315
220 212 205 204 202 210 227 253 284 292 290 286 289 289 290 290 288 285 284 285 294 294 296 300 305 310 310 312 314 314 316 316 314 315 316 315 311 307 306 308 306 307 311
218 212 214 220 224 236 248 258 261 262 269 273 280 280 279 276 277 277 275 277 285 283 290 298 301 300 304 309 313 315 318 320 320 321 322 319 316 316 315 312 311 308 309
216 220 224 234 244 249 256 264 264 267 271 273 273 270 268 269 265 260 265 277 287 290 294 300 302 302 305 312 316 319 319 321 322 323 320 318 317 317 316 313 314 311 310
223 230 235 240 245 249 255 257 259 266 270 274 271 265 262 256 250 249 260 275 283 288 297 297 295 298 306 312 315 315 317 319 319 319 319 320 320 320 319 316 316 315 314
232 238 246 253 259 261 261 266 268 269 268 263 256 254 252 247 249 256 265 274 283 289 300 299 300 301 304 305 305 305 306 309 315 318 319 319 320 320 321 322 319 317 315
242 244 245 248 255 262 267 271 273 269 266 260 257 254 247 245 249 258 266 272 278 287 289 287 291 295 294 295 297 304 312 315 318 319 318 318 319 321 322 324 321 318 316
240 243 247 252 258 263 267 267 264 261 256 253 252 245 240 241 248 256 263 269 273 274 277 278 280 284 290 298 304 309 311 312 315 316 317 316 317 318 320 320 319 318 317
247 249 251 254 256 258 259 259 257 254 252 249 242 239 241 244 249 254 259 264 264 269 273 276 281 288 293 296 301 304 307 309 310 311 312 312 314 314 317 317 316 317 317
249 250 252 254 254 254 254 253 251 250 249 246 243 244 244 247 250 253 258 261 264 267 274 282 284 289 292 294 296 298 301 303 305 307 309 309 310 310 312 313 314 314 316
247 248 250 248 249 250 250 250 248 247 246 242 241 242 246 249 248 254 260 265 268 271 274 278 282 284 288 291 293 296 297 300 302 304 305 305 306 306 307 308 310 311 314
246 247 248 250 249 249 250 248 246 246 243 241 242 243 251 255 257 259 261 264 268 271 274 278 281 285 288 290 292 292 293 295 298 300 298 299 301 302 303 304 306 308 310
247 248 250 250 251 250 249 248 247 247 245 247 247 246 251 258 262 264 265 266 267 269 272 276 280 283 287 288 288 290 291 294 295 294 294 294 295 297 298 299 302 304 307
247 248 249 249 247 246 245 245 248 247 248 251 253 254 255 258 263 268 271 274 275 275 276 278 281 283 285 286 286 287 289 291 291 291 291 290 290 292 292 294 297 301 303
243 243 243 242 242 245 247 248 248 249 251 255 258 261 263 265 267 269 272 274 276 278 280 281 282 284 285 286 286 287 288 287 288 289 288 288 288 288 288 290 293 296 297
236 236 239 242 245 248 251 253 255 256 258 261 265 267 269 271 272 274 276 277 279 281 282 282 283 284 286 287 287 287 287 287 287 287 287 285 285 285 285 286 288 290 292